Wind_Speed
11 14 16 15 13 12 10 7 4 3 3 3 4 5 3 4 5 7 8 10 13 14 13 12 11 11 10 11 12 14 12 12 12 12 10 7 7 7 7 7 6 6 4
12 12 16 15 14 15 13 10 6 4 4 3 2 4 3 4 4 7 9 10 15 13 12 11 11 11 11 11 12 13 12 11 10 9 8 8 8 9 8 7 6 6 5
9 12 14 14 12 14 15 11 9 6 3 2 1 1 4 4 5 7 9 10 12 11 11 11 11 11 10 12 12 12 11 11 9 10 9 9 10 10 9 8 9 8 6
8 11 15 12 7 12 16 12 10 5 2 0 4 3 3 4 6 7 8 10 10 9 9 11 11 9 11 11 12 13 13 13 13 12 12 11 10 10 10 10 9 8 7
8 8 12 11 7 12 15 15 10 6 5 5 4 8 4 6 7 7 8 9 7 7 9 10 9 10 11 12 13 14 15 15 15 14 12 10 9 10 10 9 9 8 11
9 7 12 12 12 14 7 14 15 7 7 10 7 8 7 7 7 7 8 6 6 6 8 9 9 11 13 14 14 14 15 16 14 13 11 10 12 13 12 10 9 10 11
9 8 9 9 10 12 9 12 11 7 6 8 12 11 10 9 9 8 8 5 7 5 8 8 10 13 16 14 14 12 15 16 16 16 14 16 14 13 15 10 6 8 10
8 8 8 9 10 15 14 12 9 9 6 10 15 12 11 9 10 8 6 5 7 6 8 8 13 15 15 14 13 13 17 17 16 16 18 19 19 16 20 16 11 9 9
7 8 9 9 11 14 13 9 9 8 9 15 15 13 13 13 11 10 7 6 6 7 7 10 14 13 13 13 16 17 17 15 13 15 14 15 16 12 16 20 15 11 12
7 9 11 13 14 16 13 11 9 12 9 16 12 13 15 13 12 11 9 8 7 8 7 11 13 12 14 13 14 16 14 13 13 13 14 11 12 13 16 15 15 8 6
5 5 12 17 15 15 15 10 8 14 12 13 11 14 16 16 15 12 11 9 8 9 9 10 11 13 13 11 11 13 14 15 11 10 11 14 15 16 14 11 12 10 5
5 7 14 16 14 16 15 13 11 13 12 12 11 11 20 16 16 12 11 10 8 9 10 12 10 13 12 10 8 9 9 10 11 6 5 13 14 14 12 11 12 11 11
15 13 13 16 13 14 15 17 12 13 15 13 10 24 18 17 16 12 10 10 9 8 7 10 10 10 11 10 8 7 7 6 8 6 6 12 13 14 14 14 14 13 13
10 13 13 12 12 12 14 15 12 17 14 13 16 15 16 16 16 14 12 12 11 7 7 7 7 8 8 9 8 6 7 7 7 7 11 13 15 15 16 15 15 14 13
11 12 10 11 12 11 11 12 14 15 17 16 19 19 19 18 17 12 12 12 11 8 6 3 5 5 6 6 8 6 7 7 7 9 14 15 16 15 16 16 15 15 16
12 10 12 13 11 12 12 11 13 16 17 19 19 20 21 18 16 14 13 11 12 6 4 3 4 3 3 6 4 2 4 6 7 10 11 10 12 13 14 15 15 16 17
9 12 11 12 12 12 13 11 10 19 17 16 16 20 21 21 18 17 14 7 9 7 5 4 2 3 1 5 7 10 5 5 6 5 9 7 9 13 14 16 18 18 17
6 11 14 11 11 11 15 12 11 19 16 13 21 24 19 22 22 14 8 9 11 9 8 6 3 0 3 5 8 9 5 5 3 7 8 4 9 9 10 12 13 15 16
5 11 13 13 11 13 13 12 10 15 17 18 24 24 21 20 20 15 9 12 10 8 3 7 5 3 2 4 7 2 1 5 3 3 5 1 7 8 5 12 12 11 14
5 9 10 10 11 11 12 12 12 12 16 17 22 24 21 20 17 13 12 11 11 6 7 5 3 3 4 3 6 3 2 5 2 1 7 9 7 10 12 9 10 11 15
5 8 9 10 11 13 12 12 12 13 16 16 18 16 18 18 16 16 14 13 11 11 6 3 5 2 1 2 3 2 4 8 7 3 5 5 5 7 9 7 9 10 14
6 5 8 10 11 12 12 10 12 16 16 15 14 15 14 19 16 19 16 12 12 11 11 7 5 5 1 1 1 2 2 6 8 1 4 4 5 6 7 7 9 10 12
7 10 4 7 10 14 15 14 12 9 9 10 12 16 18 15 17 18 16 15 12 11 11 10 8 7 7 2 4 2 1 4 6 4 8 6 6 9 7 8 7 7 8
9 9 9 7 8 13 15 15 18 18 17 17 15 14 15 15 17 16 17 16 14 14 14 12 10 8 8 6 3 0 1 3 4 4 7 5 7 6 5 6 6 7 7
11 9 10 9 10 12 13 16 15 15 15 14 15 17 17 15 15 17 18 17 17 18 16 15 11 9 8 8 4 4 3 3 5 4 8 6 6 7 7 8 7 7 8
11 9 10 9 10 11 13 14 15 15 17 17 17 20 19 18 17 17 17 16 17 19 18 17 15 12 9 8 5 2 4 5 7 6 6 6 5 8 9 7 6 6 6
Wind_Direction
208 206 209 208 208 214 220 216 232 276 343 352 352 18 93 69 72 91 83 95 98 99 95 88 80 74 70 74 78 85 83 80 76 72 71 78 82 69 68 58 58 62 63
211 204 205 206 214 219 216 229 233 254 319 306 333 27 128 87 89 85 94 94 105 99 93 88 82 81 74 76 76 76 81 80 74 71 65 45 47 43 37 34 34 41 39
214 204 203 212 223 224 221 227 235 228 304 277 196 28 129 116 93 94 99 98 101 98 92 89 85 78 79 76 72 70 69 65 55 45 43 30 26 34 32 24 25 25 23
208 202 200 201 211 217 205 214 208 221 255 210 190 179 158 127 105 107 103 107 98 85 85 83 80 75 79 73 61 57 53 48 45 35 34 33 29 34 31 30 26 23 32
198 180 182 186 193 169 186 197 205 218 241 209 175 171 161 138 115 117 109 104 87 83 79 81 76 78 74 61 59 55 54 50 46 35 36 34 30 34 35 42 47 41 35
197 176 164 174 188 168 171 210 222 227 244 206 197 186 177 142 128 128 121 96 94 85 84 77 82 81 73 67 64 65 67 56 41 33 22 24 29 34 29 24 41 57 64
194 176 157 173 183 190 216 189 188 208 205 187 176 167 171 149 142 139 128 113 97 90 85 82 88 81 76 76 74 71 69 55 47 47 40 45 46 35 32 32 85 72 71
161 179 177 170 185 173 175 172 178 188 199 186 169 169 173 160 149 153 137 130 108 104 88 95 88 82 85 85 81 73 74 65 64 55 49 58 64 75 47 67 97 80 63
168 183 188 189 179 182 172 180 174 201 177 183 161 175 185 167 156 162 157 141 127 108 100 95 93 92 96 88 85 76 75 75 61 63 61 65 69 81 64 69 61 99 72
202 214 212 197 181 184 175 180 187 175 169 159 161 177 170 163 169 167 162 153 143 124 120 103 102 99 91 88 87 89 84 67 58 66 55 51 66 75 70 68 64 99 78
142 158 175 177 183 185 181 182 188 179 159 160 183 188 183 171 174 172 168 156 152 141 137 121 117 100 88 80 78 82 77 63 50 64 65 65 62 63 59 63 71 74 96
203 158 151 166 167 165 175 175 185 186 169 172 182 176 184 175 174 175 175 154 151 152 154 140 132 113 101 88 75 71 72 47 29 41 60 68 75 79 70 62 59 54 58
133 152 128 147 155 164 162 161 178 183 180 179 178 166 171 175 172 174 186 152 156 163 163 140 134 121 117 106 82 72 66 50 31 34 75 68 61 73 76 66 62 49 42
151 153 149 156 173 171 173 182 189 186 173 161 156 175 174 173 176 180 190 163 152 162 157 162 142 125 102 109 104 96 83 81 84 41 77 66 50 53 60 59 57 55 46
154 164 152 158 168 169 162 178 197 211 191 174 170 171 176 176 183 181 200 164 153 161 168 173 143 118 109 99 94 88 73 95 83 65 57 52 45 39 44 41 40 46 47
152 161 166 167 163 165 162 171 201 207 188 192 182 187 174 181 185 191 199 181 177 159 159 170 162 154 105 85 96 149 78 105 102 61 55 46 56 37 34 42 38 32 39
164 162 172 168 173 182 185 205 198 192 185 197 199 191 176 180 189 196 197 186 195 159 181 173 188 179 99 55 47 20 347 57 82 85 67 46 54 40 32 36 27 27 33
160 169 170 165 175 190 203 195 183 171 172 186 172 172 181 187 191 189 198 200 189 183 182 177 180 196 36 48 46 6 30 60 51 48 41 74 30 29 41 38 42 36 37
161 165 160 150 169 181 183 183 184 176 173 164 175 172 184 193 201 186 182 209 203 194 195 189 167 125 112 102 86 135 49 67 93 34 44 62 46 38 17 37 33 46 52
152 166 160 150 164 157 168 162 164 176 172 174 179 179 183 189 198 200 192 211 212 200 222 226 165 152 112 174 146 200 28 36 36 108 42 40 33 3 39 25 14 36 57
147 151 157 162 165 154 154 162 158 163 171 179 185 194 186 194 196 205 206 214 210 203 184 216 157 113 294 92 73 115 19 346 237 64 87 30 22 19 11 357 8 16 43
136 152 146 155 168 170 164 163 166 174 172 181 192 198 191 197 210 208 210 215 210 203 185 194 166 160 174 32 272 126 15 330 19 222 63 54 0 4 346 358 11 9 42
156 129 153 153 157 186 177 168 183 182 195 182 189 205 212 214 215 208 214 214 208 206 203 199 187 173 180 190 260 122 51 351 18 26 54 50 28 17 10 346 25 6 30
163 139 146 179 176 173 179 184 186 191 199 201 199 207 212 207 208 211 210 224 211 211 208 207 207 193 173 182 211 173 354 4 338 333 4 20 19 13 346 345 4 4 27
176 167 158 178 180 176 176 189 190 198 211 214 211 210 214 212 210 216 220 217 217 212 212 212 217 219 199 185 187 191 249 309 316 317 326 360 1 344 344 3 344 348 36
189 181 180 180 177 188 182 184 191 201 213 221 217 221 219 215 216 220 221 225 223 221 216 220 215 221 221 208 206 233 241 285 307 306 315 326 331 329 352 356 338 326 15
Height
5892 5892 5894 5896 5898 5900 5901 5904 5906 5907 5907 5908 5908 5908 5908 5908 5908 5909 5909 5909 5908 5907 5905 5903 5902 5901 5899 5899 5899 5900 5899 5897 5897 5896 5896 5895 5893 5891 5890 5889 5889 5890 5890
5892 5893 5894 5896 5898 5900 5902 5904 5905 5907 5908 5908 5908 5908 5909 5908 5909 5910 5910 5910 5910 5909 5907 5905 5904 5904 5902 5901 5899 5899 5900 5899 5899 5898 5895 5895 5893 5892 5891 5890 5890 5890 5890
5891 5893 5894 5896 5898 5900 5902 5904 5905 5907 5908 5909 5909 5909 5909 5909 5909 5910 5910 5911 5911 5910 5909 5907 5906 5905 5903 5902 5901 5901 5901 5900 5900 5898 5897 5895 5894 5892 5891 5891 5891 5890 5889
5890 5892 5894 5896 5898 5899 5901 5903 5905 5906 5908 5909 5910 5910 5910 5911 5911 5912 5912 5913 5912 5911 5910 5909 5908 5906 5905 5904 5903 5903 5903 5901 5900 5899 5897 5896 5895 5893 5892 5892 5892 5891 5889
5889 5891 5893 5896 5898 5899 5901 5903 5905 5906 5908 5910 5911 5912 5913 5913 5913 5914 5914 5914 5913 5912 5911 5910 5909 5908 5906 5905 5906 5905 5904 5902 5901 5900 5899 5897 5895 5894 5894 5893 5892 5891 5890
5888 5890 5893 5895 5898 5900 5901 5903 5905 5906 5907 5909 5912 5913 5914 5915 5915 5916 5916 5916 5914 5913 5912 5912 5911 5910 5909 5908 5907 5907 5905 5904 5904 5903 5902 5900 5898 5896 5895 5894 5893 5891 5890
5887 5890 5892 5895 5897 5900 5901 5902 5904 5906 5907 5909 5911 5913 5914 5916 5917 5918 5917 5917 5916 5915 5914 5914 5913 5912 5911 5911 5911 5909 5908 5907 5908 5906 5905 5902 5900 5898 5895 5892 5892 5892 5891
5887 5889 5891 5894 5896 5898 5900 5902 5904 5907 5907 5909 5912 5913 5916 5918 5918 5920 5919 5919 5918 5917 5917 5916 5915 5915 5916 5914 5914 5913 5911 5911 5911 5909 5907 5905 5902 5899 5897 5894 5893 5894 5892
5886 5888 5890 5893 5895 5897 5900 5903 5905 5907 5908 5911 5912 5914 5916 5918 5920 5921 5921 5920 5920 5920 5919 5919 5918 5918 5918 5917 5916 5914 5912 5913 5914 5912 5909 5906 5904 5902 5900 5897 5896 5895 5894
5886 5886 5889 5892 5895 5897 5901 5903 5905 5907 5909 5912 5913 5915 5917 5919 5920 5921 5921 5921 5922 5921 5921 5921 5921 5921 5920 5919 5919 5917 5916 5916 5915 5913 5910 5908 5906 5904 5902 5900 5898 5897 5896
5885 5885 5887 5891 5894 5898 5901 5904 5906 5908 5910 5912 5914 5915 5916 5918 5920 5921 5921 5921 5923 5922 5922 5922 5923 5923 5922 5922 5920 5920 5918 5918 5917 5916 5914 5911 5908 5905 5904 5903 5901 5899 5898
5887 5888 5889 5891 5894 5897 5900 5904 5906 5908 5910 5912 5913 5914 5917 5919 5921 5922 5922 5923 5925 5925 5924 5923 5924 5924 5923 5923 5923 5923 5922 5921 5920 5919 5917 5913 5910 5908 5907 5905 5904 5901 5900
5887 5889 5890 5893 5895 5897 5900 5903 5904 5906 5909 5911 5911 5915 5917 5921 5923 5924 5925 5925 5926 5927 5928 5927 5926 5925 5925 5924 5924 5925 5925 5924 5922 5921 5919 5915 5913 5912 5909 5907 5905 5903 5902
5890 5891 5893 5895 5897 5898 5900 5902 5903 5904 5907 5910 5912 5915 5918 5922 5924 5924 5926 5926 5928 5930 5930 5930 5929 5927 5927 5926 5926 5927 5926 5925 5924 5923 5919 5917 5916 5915 5914 5909 5906 5904 5904
5891 5893 5894 5896 5897 5899 5900 5902 5903 5904 5908 5909 5911 5915 5918 5921 5924 5927 5928 5927 5929 5932 5932 5933 5932 5931 5930 5930 5927 5929 5928 5926 5925 5923 5921 5920 5918 5917 5916 5913 5910 5906 5904
5891 5892 5894 5896 5897 5899 5901 5902 5902 5903 5906 5908 5911 5914 5917 5922 5925 5928 5928 5930 5929 5932 5934 5934 5933 5933 5933 5932 5931 5930 5930 5928 5928 5927 5922 5922 5920 5920 5918 5916 5912 5910 5905
5893 5892 5893 5894 5896 5898 5900 5901 5901 5902 5905 5907 5911 5915 5917 5921 5924 5927 5928 5930 5932 5933 5934 5935 5935 5935 5935 5935 5936 5936 5935 5933 5930 5926 5925 5924 5923 5923 5922 5920 5918 5915 5910
5892 5893 5893 5894 5895 5896 5898 5900 5901 5902 5904 5906 5911 5916 5919 5922 5924 5927 5929 5930 5932 5932 5934 5935 5936 5936 5939 5938 5936 5936 5934 5933 5931 5929 5928 5927 5925 5925 5924 5921 5919 5917 5915
5893 5893 5893 5893 5896 5896 5897 5900 5902 5904 5903 5906 5910 5915 5919 5922 5924 5925 5928 5930 5933 5934 5934 5936 5936 5938 5939 5937 5936 5935 5933 5933 5932 5933 5931 5928 5927 5928 5925 5924 5922 5919 5918
5893 5893 5893 5893 5895 5896 5898 5901 5902 5904 5905 5907 5912 5915 5917 5921 5924 5926 5927 5929 5932 5935 5937 5938 5937 5938 5938 5938 5937 5935 5935 5936 5934 5933 5931 5930 5930 5929 5926 5925 5926 5923 5918
5892 5893 5893 5893 5895 5896 5898 5900 5902 5904 5906 5909 5912 5915 5919 5920 5923 5926 5927 5929 5931 5934 5934 5938 5938 5938 5938 5939 5938 5936 5936 5934 5933 5934 5934 5931 5929 5929 5929 5928 5926 5925 5919
5891 5892 5893 5894 5894 5896 5897 5899 5901 5904 5907 5910 5911 5915 5917 5921 5922 5925 5926 5927 5929 5932 5933 5935 5937 5937 5938 5939 5937 5937 5936 5936 5935 5936 5935 5931 5931 5932 5931 5929 5926 5925 5920
5892 5891 5892 5893 5895 5897 5898 5900 5903 5903 5905 5909 5911 5913 5916 5920 5923 5925 5926 5927 5928 5930 5932 5933 5935 5935 5938 5939 5937 5936 5937 5937 5935 5935 5934 5934 5932 5932 5931 5929 5927 5925 5922
5890 5889 5891 5894 5895 5896 5897 5899 5902 5904 5905 5906 5910 5914 5918 5919 5920 5922 5925 5926 5928 5929 5932 5933 5934 5934 5934 5936 5937 5937 5936 5936 5935 5935 5933 5935 5934 5933 5931 5930 5926 5924 5924
5890 5890 5890 5893 5895 5895 5896 5898 5901 5903 5904 5906 5909 5914 5916 5918 5919 5921 5923 5924 5925 5927 5929 5932 5933 5935 5934 5932 5933 5935 5934 5935 5934 5934 5933 5934 5935 5934 5933 5928 5925 5925 5925
5890 5890 5892 5892 5892 5894 5895 5897 5899 5901 5903 5905 5907 5908 5911 5913 5916 5919 5920 5921 5923 5926 5928 5930 5931 5932 5933 5932 5931 5932 5932 5933 5933 5933 5933 5934 5935 5933 5931 5929 5926 5925 5924